GEFSMW_con_prob3kmehi_138.txt.gz
EHI
0 1 2 2 1 0 0 0 0 0 0 0 0 0 0 0 0 0 0 0 0 0 0 0 0 0 0 0 0 0 0 0 0 0 0 0 0 0 0 0 0 0 0
0 1 1 1 0 0 0 0 0 0 0 0 0 0 0 0 0 0 0 0 0 0 0 0 0 0 0 0 0 0 0 0 0 0 0 0 0 0 0 0 0 0 0
1 0 0 0 0 0 0 0 0 0 0 0 0 0 0 0 0 0 0 0 0 0 0 0 0 0 0 0 0 0 0 0 0 0 0 0 0 0 0 0 0 0 0
2 1 0 0 0 0 0 0 0 0 0 0 0 0 0 0 0 0 0 0 0 0 0 0 0 0 0 0 0 0 0 0 0 0 0 0 0 0 0 0 0 0 0
2 1 0 0 0 0 0 0 0 0 0 0 0 0 0 0 0 0 0 0 0 0 0 0 0 0 0 0 0 0 0 0 0 0 0 0 0 0 0 0 0 0 0
2 1 0 0 0 0 0 0 0 0 0 0 0 0 0 0 0 0 0 0 0 0 0 0 0 0 0 0 0 0 0 0 0 0 0 0 0 0 0 0 0 0 0
1 0 0 0 0 0 0 0 0 0 0 0 0 0 0 0 0 0 0 0 0 0 0 0 0 0 0 0 0 0 0 0 0 0 0 0 0 0 0 0 0 0 0
1 0 0 0 0 0 0 0 0 0 0 0 0 0 0 0 0 0 0 0 0 0 0 0 0 0 0 0 0 0 0 0 0 0 0 0 0 0 0 0 0 0 0
1 0 0 0 0 0 0 0 0 0 0 0 0 0 0 0 0 0 0 0 0 0 0 0 0 0 0 0 0 0 0 0 0 0 0 0 0 0 0 0 0 0 0
2 1 0 0 0 0 0 0 0 0 0 0 0 0 0 0 0 0 0 0 0 0 0 0 0 0 0 0 0 0 0 0 0 0 0 0 0 0 0 0 0 0 0
2 1 0 0 0 0 0 0 0 0 0 0 0 0 0 0 0 0 0 0 0 0 0 0 0 0 0 0 0 0 0 0 0 0 0 0 0 0 0 0 0 0 0
2 1 0 0 0 0 0 0 0 0 0 0 0 0 0 0 0 0 0 0 0 0 0 0 0 0 0 0 0 0 0 0 0 0 0 0 0 0 0 0 0 0 0
1 0 0 0 0 0 0 0 0 0 0 0 0 0 0 0 0 0 0 0 0 0 0 0 0 0 0 0 0 0 0 0 0 0 0 0 0 0 0 0 0 0 0
0 0 0 0 0 0 0 0 0 0 0 0 0 0 0 0 0 0 0 0 0 0 0 0 0 0 0 0 0 0 0 0 0 0 0 0 0 0 0 0 0 0 0
0 0 0 0 0 0 0 0 0 0 0 0 0 0 0 0 0 0 0 0 0 0 0 0 0 0 0 0 0 0 0 0 0 0 0 0 0 0 0 0 0 0 0
0 0 0 0 0 0 0 0 0 0 0 0 0 0 0 0 0 0 0 0 0 0 0 0 0 0 0 0 0 0 0 0 0 0 0 0 0 0 0 0 0 0 0
0 0 0 0 0 0 0 0 0 0 0 0 0 0 0 0 0 0 0 0 0 0 0 0 0 0 0 0 0 0 0 0 0 0 0 0 0 0 0 0 0 0 0
0 0 0 0 0 0 0 0 0 0 0 0 0 0 0 0 0 0 0 0 0 0 0 0 0 0 0 0 0 0 0 0 0 0 0 0 0 0 0 0 0 0 0
0 0 0 0 0 0 0 0 0 0 0 0 0 0 0 0 0 0 0 0 0 0 0 0 0 0 0 0 0 0 0 0 0 0 0 0 0 0 0 0 0 0 0
0 0 0 0 0 0 0 0 0 0 0 0 0 0 0 0 0 0 0 0 0 0 0 0 0 0 0 0 0 0 0 0 0 0 0 0 0 0 0 0 0 0 0
0 0 0 0 0 0 0 0 0 0 0 0 0 0 0 0 0 0 0 0 0 0 0 0 0 0 0 0 0 0 0 0 0 0 0 0 0 0 0 0 0 0 0
0 0 0 0 0 0 0 0 0 0 0 0 0 0 0 0 0 0 0 0 0 0 0 0 0 0 0 0 0 0 0 0 0 0 0 0 0 0 0 0 0 0 0
0 0 0 0 0 0 0 0 0 0 0 0 0 0 0 0 0 0 0 0 0 0 0 0 0 0 0 0 0 0 0 0 0 0 0 0 0 0 0 0 0 0 0
0 0 0 0 0 0 0 0 0 0 0 0 0 0 0 0 0 0 0 0 0 0 0 0 0 0 0 0 0 0 0 0 0 0 0 0 0 0 0 0 0 0 0
0 0 0 0 0 0 0 0 0 0 0 0 0 0 0 0 0 0 0 0 0 0 0 0 0 0 0 0 0 0 0 0 0 0 0 0 0 0 0 0 0 0 0
0 0 0 0 0 0 0 0 0 0 0 0 0 0 0 0 0 0 0 0 0 0 0 0 0 0 0 0 0 0 0 0 0 0 0 0 0 0 0 0 0 0 0

GEFSMW_con_prob3kmehi_144.txt.gz
EHI
5 6 5 4 3 3 3 2 4 6 7 7 7 6 3 2 2 2 2 2 1 1 0 0 0 0 0 0 0 0 0 0 1 2 2 3 2 2 1 0 0 1 3
7 7 7 6 4 3 3 3 5 6 6 6 5 4 2 1 1 2 3 2 2 1 0 0 0 0 0 0 0 0 0 0 0 1 1 2 2 1 0 0 0 1 4
9 8 9 8 5 3 3 3 5 6 6 4 2 1 1 0 1 2 3 3 1 1 0 0 0 0 0 0 0 0 0 0 0 0 0 1 1 1 0 0 0 2 3
11 9 9 8 5 3 3 4 6 8 7 4 1 0 0 0 1 2 3 2 1 0 0 0 0 0 0 0 0 0 0 0 0 0 0 0 1 1 0 0 0 1 2
13 10 7 6 4 3 4 5 8 8 6 3 1 0 0 0 1 2 2 2 1 0 0 0 0 0 0 0 0 0 0 0 0 0 0 0 0 0 0 0 0 0 0
14 11 7 6 5 4 4 5 7 7 4 1 1 0 0 0 0 1 1 1 0 0 0 0 0 0 0 0 0 1 1 1 0 0 0 0 0 0 0 0 0 0 0
14 12 10 8 6 5 4 3 4 3 1 0 0 0 0 0 0 0 0 0 0 0 0 0 0 0 0 0 0 0 0 0 0 0 0 0 0 0 0 0 0 0 0
15 13 12 11 7 4 3 2 2 2 1 1 1 1 0 0 0 0 0 0 0 0 0 0 0 0 0 0 0 0 0 0 0 0 0 0 0 0 0 0 0 0 0
16 13 11 10 6 2 1 1 2 3 2 2 2 1 0 0 0 0 0 0 0 0 0 0 0 0 0 0 0 0 0 0 0 0 0 0 0 0 0 0 0 0 0
15 12 10 8 5 4 3 2 2 2 1 1 1 1 1 1 1 1 0 0 0 0 0 0 0 0 0 0 0 0 0 0 0 0 0 0 0 0 0 0 0 0 0
14 12 9 7 6 6 5 4 1 0 0 0 1 1 2 2 2 2 1 1 1 0 0 0 0 0 0 0 0 0 0 0 0 0 0 0 0 0 0 0 0 0 0
16 14 10 8 7 6 5 4 2 1 1 1 2 3 3 4 3 3 2 2 1 0 0 0 0 0 0 0 0 0 0 0 0 0 0 0 0 0 0 0 0 0 0
17 15 12 9 7 6 5 4 3 2 2 1 2 4 5 5 4 2 1 1 1 0 0 0 0 0 0 0 0 0 0 0 0 0 0 0 0 0 0 0 0 0 0
18 16 14 12 9 7 6 5 4 4 3 1 2 5 6 5 3 1 0 0 0 0 0 0 0 0 0 0 0 0 0 0 0 0 0 0 0 0 0 0 0 0 0
17 18 17 16 13 11 9 7 7 5 3 2 3 5 6 5 3 1 1 0 0 0 0 0 0 0 0 0 0 0 0 0 0 0 0 0 0 0 0 0 0 0 0
16 18 18 18 17 15 14 12 10 8 5 2 2 3 5 5 4 3 2 1 0 0 0 0 0 0 0 0 0 0 0 0 0 0 0 0 0 0 0 0 0 0 0
15 16 18 19 20 19 18 16 14 11 8 4 2 3 5 6 5 4 3 2 1 0 0 0 0 0 0 0 0 0 0 0 0 0 0 0 0 0 0 0 0 0 0
12 14 17 19 20 20 18 16 14 12 8 4 3 4 5 6 5 4 3 2 1 0 0 0 0 0 0 0 0 0 0 0 0 0 0 0 0 0 0 0 0 0 0
12 14 17 19 20 20 18 15 13 10 6 3 2 3 4 4 4 3 2 1 1 1 0 0 0 0 0 0 0 0 0 0 0 0 0 0 0 0 0 0 0 0 0
15 17 18 20 21 21 19 16 12 8 4 1 2 3 3 3 3 3 3 2 2 2 1 0 0 0 0 0 0 0 0 0 0 0 0 0 0 0 0 0 0 0 0
20 20 20 20 21 21 20 17 13 8 3 1 2 2 2 2 2 3 3 3 3 3 2 1 0 1 1 0 0 0 0 0 0 0 0 0 0 0 0 0 0 0 0
21 20 19 19 18 16 17 17 13 8 3 2 2 2 2 1 1 2 2 3 3 2 2 1 1 1 1 0 0 0 0 0 0 0 0 0 0 0 0 0 0 0 0
18 17 17 18 15 12 12 13 11 8 4 3 4 3 2 2 2 2 2 2 1 1 1 1 0 1 1 0 0 0 0 0 0 0 0 0 0 0 0 0 0 0 0
16 16 18 19 15 11 10 9 7 6 5 5 5 4 3 3 3 3 1 1 1 0 1 1 1 1 0 0 0 0 0 0 0 0 0 0 0 0 0 0 0 0 0
12 13 16 17 14 11 9 8 5 5 5 5 5 4 3 3 3 2 0 0 1 1 1 2 2 1 0 0 0 0 0 0 0 0 0 0 0 0 0 0 0 0 0
8 10 12 13 10 9 8 6 5 5 5 4 4 5 3 2 2 1 0 0 1 1 1 1 1 1 0 0 0 0 0 0 0 0 0 0 0 0 0 0 0 0 0

GEFSMW_con_prob3kmehi_150.txt.gz
EHI
39 40 42 41 37 32 26 23 22 20 16 12 10 9 8 9 10 9 7 5 3 3 4 6 7 8 7 4 1 0 0 0 0 1 2 2 1 1 1 4 6 4 1
41 41 41 38 32 26 21 19 20 19 14 11 9 8 8 9 9 7 5 3 2 3 4 4 6 7 6 3 1 0 0 0 0 0 1 1 0 0 1 3 5 3 2
45 43 40 34 26 20 16 16 19 18 14 10 6 5 6 6 6 6 4 3 3 4 4 4 4 5 4 2 1 1 1 0 0 0 0 0 0 0 1 2 3 2 2
48 43 36 30 23 16 14 16 19 17 12 8 5 3 3 4 5 7 8 6 4 3 3 3 3 4 3 2 1 2 2 1 1 2 1 1 0 0 0 1 1 1 1
49 43 34 27 20 14 12 15 18 17 12 7 4 3 3 5 6 8 9 6 3 2 1 1 2 3 2 2 2 3 3 3 2 2 2 1 0 0 0 0 0 0 0
47 41 34 26 20 14 11 13 18 19 13 6 3 4 6 7 7 6 5 3 1 0 0 0 1 1 1 1 1 2 2 2 2 1 1 1 0 0 0 0 0 0 0
42 38 32 26 22 18 14 15 19 20 14 7 5 6 7 6 5 3 1 1 0 0 0 0 0 0 0 0 0 1 1 1 1 0 0 0 0 0 0 0 0 0 0
38 34 29 26 23 20 18 18 20 19 15 11 10 10 7 4 3 1 0 0 0 1 1 1 0 0 0 0 0 0 0 0 0 0 0 0 0 0 0 0 0 0 0
35 31 27 26 22 20 19 20 20 19 17 15 14 11 6 4 3 1 0 1 1 2 2 1 1 0 0 0 0 0 0 0 0 0 0 0 0 0 0 0 0 0 0
34 29 26 24 20 18 18 18 21 23 20 17 14 10 7 5 4 2 1 1 2 3 3 3 2 1 0 0 0 0 0 0 0 0 0 0 0 0 0 0 0 0 0
36 33 29 24 18 15 15 16 20 24 24 20 15 12 10 7 5 3 3 3 3 3 3 3 3 2 0 0 0 0 0 0 0 0 0 0 0 0 0 0 0 0 0
40 38 33 25 17 13 14 16 19 22 24 22 17 14 12 10 7 5 4 4 4 3 3 3 2 1 0 0 0 0 0 0 0 0 0 0 0 0 0 0 0 0 0
46 45 41 33 24 19 17 18 19 21 22 20 16 14 14 13 10 6 5 5 4 3 2 2 1 0 0 0 0 0 0 0 0 0 0 0 0 0 0 0 0 0 0
53 54 56 52 44 36 28 22 22 23 23 19 16 17 17 15 11 7 5 4 3 1 1 1 0 0 0 0 0 0 0 0 0 0 0 0 0 0 0 0 0 0 0
57 63 70 70 66 57 42 31 29 28 26 23 22 23 21 16 12 8 6 4 1 0 0 0 0 0 0 0 0 0 0 0 0 0 0 0 0 0 0 0 0 0 0
58 68 78 79 76 65 50 41 39 37 33 30 29 28 25 18 12 9 7 4 1 0 0 0 0 0 0 0 0 0 0 0 0 0 0 0 0 0 0 0 0 0 0
61 71 80 82 76 63 52 49 47 43 39 34 33 31 25 18 13 10 7 5 2 1 1 1 0 0 0 0 0 0 0 0 0 0 0 0 0 0 0 0 0 0 0
65 73 80 81 73 62 56 54 49 43 38 35 33 29 22 17 14 11 9 6 5 4 4 3 1 1 0 0 0 0 0 0 0 0 0 0 0 0 0 0 0 0 0
65 70 74 75 72 67 63 56 47 39 36 34 31 24 19 16 15 13 10 8 7 7 6 5 4 3 2 1 0 0 0 0 0 0 0 0 0 0 0 0 0 0 0
61 66 69 72 75 75 70 60 48 41 37 34 30 24 20 19 18 16 14 12 10 8 6 5 6 7 5 3 1 0 0 0 0 0 0 0 0 0 0 0 0 0 0
62 67 72 76 79 80 76 65 54 46 40 35 31 27 23 21 20 21 20 17 13 10 8 6 7 8 8 4 1 0 0 0 0 0 0 0 0 0 0 0 0 0 0
65 70 76 80 81 81 78 70 62 52 42 36 33 29 23 18 18 21 22 19 14 11 10 8 6 7 7 4 1 0 0 0 0 0 0 0 0 0 0 0 0 0 0
67 71 75 78 80 79 75 70 66 59 50 43 39 31 23 18 17 19 18 16 12 10 9 8 6 6 6 4 2 0 0 0 0 0 0 0 0 0 0 0 0 0 0
71 72 74 75 76 74 67 65 66 63 57 50 42 32 23 18 16 16 13 10 8 7 7 7 7 6 5 4 2 0 0 0 0 0 0 0 0 0 0 0 1 1 0
70 72 72 70 70 67 61 61 64 63 57 47 36 25 17 13 12 11 7 5 4 4 5 6 5 3 2 1 1 0 0 0 0 0 0 0 0 0 0 1 2 2 1
68 69 69 66 66 62 59 61 64 62 55 42 28 17 11 8 8 7 4 2 2 2 2 3 2 1 0 0 0 0 0 0 0 0 0 0 0 0 0 1 2 3 3

GEFSMW_con_prob3kmehi_156.txt.gz
EHI
42 40 36 32 28 22 14 10 9 8 6 4 3 2 1 0 0 0 0 0 0 0 0 0 0 0 0 0 0 0 0 0 0 0 0 0 0 0 0 0 0 0 0
43 40 36 31 24 18 13 9 7 6 4 3 3 1 0 0 0 0 0 0 0 0 0 0 0 0 0 0 0 0 0 0 0 0 0 0 0 0 0 0 0 0 0
42 38 35 28 18 12 9 6 5 3 2 1 1 0 0 0 0 0 0 0 0 0 0 0 0 0 0 0 0 0 0 0 0 0 0 0 0 0 0 0 0 0 0
38 36 33 27 16 10 7 5 4 2 1 0 0 0 0 0 0 0 0 0 0 0 0 0 0 0 0 0 0 0 0 0 0 0 0 0 0 0 0 0 0 0 0
36 35 32 26 17 10 7 6 4 1 0 0 0 0 0 0 0 0 0 0 0 0 0 0 0 0 0 0 0 0 0 0 0 0 0 0 0 0 0 0 0 0 0
35 33 30 26 19 11 7 6 5 2 1 0 0 0 0 0 0 0 0 0 0 0 0 0 0 0 0 0 0 0 0 0 0 0 0 0 0 0 0 0 0 0 0
34 31 29 25 19 11 7 6 5 3 2 1 0 0 0 0 0 0 0 0 0 0 0 0 0 0 0 0 0 0 0 0 0 0 0 0 0 0 0 0 0 0 0
33 31 28 24 18 11 7 6 5 3 2 1 0 0 0 0 0 0 0 0 0 0 0 0 0 0 0 0 0 0 0 0 0 0 0 0 0 0 0 0 0 0 0
31 29 25 21 16 10 7 6 5 3 1 1 0 0 0 0 0 0 0 0 0 0 0 0 0 0 0 0 0 0 0 0 0 0 0 0 0 0 0 0 0 0 0
28 26 21 16 12 9 7 5 3 1 0 0 0 0 0 0 0 0 0 0 0 0 0 0 0 0 0 0 0 0 0 0 0 0 0 0 0 0 0 0 0 0 0
23 21 17 13 11 9 6 3 1 0 0 0 0 0 0 0 0 0 0 0 0 0 0 0 0 0 0 0 0 0 0 0 0 0 0 0 0 0 0 0 0 0 0
16 16 14 13 12 10 6 2 1 0 0 0 0 0 0 0 0 0 0 0 0 0 0 0 0 0 0 0 0 0 0 0 0 0 0 0 0 0 0 0 0 0 0
12 12 12 13 13 11 7 4 2 1 0 0 0 0 0 0 0 0 0 0 0 0 0 0 0 0 0 0 0 0 0 0 0 0 0 0 0 0 0 0 0 0 0
12 12 11 11 12 11 8 5 3 1 0 0 0 0 0 0 0 0 0 0 0 0 0 0 0 0 0 0 0 0 0 0 0 0 0 0 0 0 0 0 0 0 0
15 14 12 10 10 9 7 5 4 3 2 1 1 0 0 0 0 0 0 0 0 0 0 0 0 0 0 0 0 0 0 0 0 0 0 0 0 0 0 0 0 0 0
19 17 14 12 11 9 8 6 6 6 6 4 2 1 0 0 0 0 1 1 1 0 0 0 0 0 0 0 0 0 0 0 0 0 0 0 0 0 0 0 0 0 0
19 18 16 14 12 11 9 8 9 10 9 6 3 1 0 0 0 1 2 2 2 1 0 0 0 0 0 0 0 0 0 0 0 0 0 0 0 0 0 0 0 0 0
16 15 14 13 12 11 10 11 13 13 11 7 3 1 0 0 0 1 2 3 3 2 1 0 0 0 0 0 0 0 0 0 0 0 0 0 0 0 0 0 0 0 0
13 11 11 12 10 10 12 14 15 15 12 8 3 1 0 0 0 1 3 3 3 3 2 1 0 0 0 0 0 0 0 0 0 0 0 0 0 0 0 0 0 0 0
10 9 10 9 8 11 15 17 17 16 13 9 5 2 1 0 0 1 2 2 2 2 2 1 0 0 0 0 0 0 0 0 0 0 0 0 0 0 0 0 0 0 0
7 8 9 8 8 12 17 20 20 18 14 10 6 4 2 1 0 1 1 1 1 1 1 0 0 0 0 0 0 0 0 0 0 0 0 0 0 0 0 0 0 0 0
6 7 8 8 8 13 18 22 20 17 13 9 6 5 3 1 0 0 0 0 0 0 0 0 0 0 0 0 0 0 0 0 0 0 0 0 0 0 0 0 0 0 0
6 8 9 9 9 13 18 20 18 13 10 8 6 5 4 2 1 0 0 0 0 0 0 0 0 0 0 0 0 0 0 0 0 0 0 0 0 0 0 0 0 0 0
9 11 12 11 12 15 17 16 14 11 9 7 6 5 4 2 1 0 0 0 0 0 0 0 0 0 0 0 0 0 0 0 0 0 0 0 0 0 0 0 0 0 0
12 13 13 13 15 16 16 14 11 10 9 6 5 4 3 1 0 0 0 0 0 0 0 0 0 0 0 0 0 0 0 0 0 0 0 0 0 0 0 0 0 0 0
13 13 12 13 15 15 14 13 11 9 8 5 4 4 2 1 0 0 0 0 0 0 0 0 0 0 0 0 0 0 0 0 0 0 0 0 0 0 0 0 0 0 0

GEFSMW_con_prob3kmehi_162.txt.gz
EHI
14 11 9 8 6 4 4 3 2 2 2 1 0 0 0 0 0 0 0 0 0 0 0 0 0 0 0 0 0 0 0 0 0 0 0 0 0 0 0 0 0 0 0
18 16 14 13 10 7 5 3 1 1 1 0 0 0 0 0 0 0 0 0 0 0 0 0 0 0 0 0 0 0 0 0 0 0 0 0 0 0 0 0 0 0 0
24 23 21 18 14 9 4 1 0 0 0 0 0 0 0 0 0 0 0 0 0 0 0 0 0 0 0 0 0 0 0 0 0 0 0 0 0 0 0 0 0 0 0
27 26 24 19 13 7 3 0 0 0 0 0 0 0 0 0 0 0 0 0 0 0 0 0 0 0 0 0 0 0 0 0 0 0 0 0 0 0 0 0 0 0 0
25 24 22 18 11 5 1 0 0 0 0 0 0 0 0 0 0 0 0 0 0 0 0 0 0 0 0 0 0 0 0 0 0 0 0 0 0 0 0 0 0 0 0
21 21 19 15 8 3 1 0 0 0 0 0 0 0 0 0 0 0 0 0 0 0 0 0 0 0 0 0 0 0 0 0 0 0 0 0 0 0 0 0 0 0 0
17 18 16 11 6 2 1 1 1 0 0 0 0 0 0 0 0 0 0 0 0 0 0 0 0 0 0 0 0 0 0 0 0 0 0 0 0 0 0 0 0 0 0
15 16 15 11 6 3 2 2 2 1 0 0 0 0 0 0 0 0 0 0 0 0 0 0 0 0 0 0 0 0 0 0 0 0 0 0 0 0 0 0 0 0 0
14 15 15 11 7 4 4 5 4 1 0 0 0 0 0 0 0 0 0 0 0 0 0 0 0 0 0 0 0 0 0 0 0 0 0 0 0 0 0 0 0 0 0
13 15 16 13 8 5 5 6 4 1 0 0 0 0 0 0 0 0 0 0 0 0 0 0 0 0 0 0 0 0 0 0 0 0 0 0 0 0 0 0 0 0 0
10 13 15 14 10 6 6 5 3 1 0 0 0 0 0 0 0 0 0 0 0 0 0 0 0 0 0 0 0 0 0 0 0 0 0 0 0 0 0 0 0 0 0
7 9 11 12 10 7 6 4 2 0 0 0 0 0 0 0 0 0 0 0 0 0 0 0 0 0 0 0 0 0 0 0 0 0 0 0 0 0 0 0 0 0 0
6 7 8 8 8 6 4 3 1 0 0 0 0 0 0 0 0 0 0 0 0 0 0 0 0 0 0 0 0 0 0 0 0 0 0 0 0 0 0 0 0 0 0
5 6 6 7 6 4 3 3 1 0 0 0 0 0 0 0 0 0 0 0 0 0 0 0 0 0 0 0 0 0 0 0 0 0 0 0 0 0 0 0 0 0 0
2 3 5 5 4 3 3 3 3 1 0 0 0 0 0 0 0 0 0 0 0 0 0 0 0 0 0 0 0 0 0 0 0 0 0 0 0 0 0 0 0 0 0
0 1 3 3 3 3 3 3 4 2 1 0 0 0 0 0 0 0 0 0 0 0 0 0 0 0 0 0 0 0 0 0 0 0 0 0 0 0 0 0 0 0 0
0 0 1 1 2 3 3 2 3 2 1 0 0 0 0 0 0 0 0 0 0 0 0 0 0 0 0 0 0 0 0 0 0 0 0 0 0 0 0 0 0 0 0
0 0 0 0 1 2 3 2 1 1 1 0 0 0 0 0 0 0 0 0 0 0 0 0 0 0 0 0 0 0 0 0 0 0 0 0 0 0 0 0 0 0 0
0 0 0 0 0 1 2 2 1 0 0 0 0 0 0 0 0 0 0 0 0 0 0 0 0 0 0 0 0 0 0 0 0 0 0 0 0 0 0 0 0 0 0
0 0 0 0 0 0 2 3 2 1 0 0 0 0 0 0 0 0 0 0 0 0 0 0 0 0 0 0 0 0 0 0 0 0 0 0 0 0 0 0 0 0 0
0 0 0 0 0 0 2 3 3 2 1 1 1 1 1 0 0 0 0 0 0 0 0 0 0 0 0 0 0 0 0 0 0 0 0 0 0 0 0 0 0 0 0
0 0 0 0 0 0 1 2 3 3 3 2 2 2 2 1 0 0 0 0 0 0 0 0 0 0 0 0 0 0 0 0 0 0 0 0 0 0 0 0 0 0 0
0 0 0 0 0 0 0 2 3 3 3 3 3 3 2 1 0 0 0 0 0 0 0 0 0 0 0 0 0 0 0 0 0 0 0 0 0 0 0 0 0 0 0
0 0 0 0 0 0 0 2 3 3 3 3 3 3 2 1 0 0 0 0 0 0 0 0 0 0 0 0 0 0 0 0 0 0 0 0 0 0 0 0 0 0 0
0 0 0 0 0 0 0 1 2 3 3 3 3 3 2 1 0 0 0 0 0 0 0 0 0 0 0 0 0 0 0 0 0 0 0 0 0 0 0 0 0 0 0
0 0 0 0 0 0 0 0 1 3 3 3 3 3 1 0 0 0 0 0 0 0 0 0 0 0 0 0 0 0 0 0 0 0 0 0 0 0 0 0 0 0 0

GEFSMW_con_prob3kmehi_168.txt.gz
EHI
31 34 34 28 24 25 24 22 23 24 23 21 18 15 11 7 4 2 2 1 0 0 1 2 4 5 4 1 0 0 0 0 0 0 0 0 0 0 1 1 1 0 0
41 41 37 29 24 23 20 18 19 20 20 19 16 13 10 7 4 3 1 0 0 0 1 2 3 3 2 1 0 0 0 0 0 0 0 0 0 0 0 0 0 1 1
49 45 40 33 26 22 18 16 17 17 17 17 13 9 6 5 4 4 2 0 0 0 1 1 1 1 1 0 0 0 0 0 0 0 0 0 0 0 0 1 1 1 2
44 43 40 36 30 24 20 19 19 19 18 16 10 5 3 4 5 5 3 2 1 1 0 0 0 0 0 0 0 0 0 1 0 0 0 0 0 0 0 1 1 1 1
37 38 38 35 32 28 25 24 22 21 18 14 7 3 3 5 7 6 6 5 4 2 1 0 1 1 1 1 0 0 0 0 0 0 0 0 0 0 0 1 1 0 0
32 34 36 36 36 34 31 28 23 19 14 10 6 3 2 4 6 7 7 7 5 3 1 0 1 2 2 1 0 0 0 0 0 0 0 1 0 0 0 0 0 0 0
29 33 37 39 40 40 35 27 20 15 10 6 5 5 2 2 3 4 5 5 4 2 1 1 1 1 1 1 0 0 0 0 0 0 0 0 0 0 0 0 0 0 0
27 32 37 39 40 40 33 24 16 12 8 5 6 7 4 1 1 2 3 3 2 2 2 2 1 0 0 0 0 0 0 0 0 0 0 0 0 0 0 0 0 0 0
24 28 34 37 39 37 30 21 16 12 7 5 7 8 5 1 0 1 1 1 1 1 1 1 1 0 0 0 0 0 0 0 0 0 0 0 0 0 0 0 0 0 0
18 23 29 34 36 34 26 19 15 11 6 4 5 6 4 1 0 0 0 0 0 0 0 0 0 0 0 0 0 0 0 0 0 0 0 0 0 0 0 0 0 0 0
14 19 27 32 32 29 22 16 13 10 6 3 2 3 2 1 0 0 0 0 0 0 0 0 0 0 0 0 0 0 0 0 0 0 0 0 0 0 0 0 0 0 0
18 22 28 31 29 24 18 14 12 10 7 5 3 2 2 1 1 0 0 0 0 0 0 0 0 0 0 0 0 0 0 0 0 0 0 0 0 0 0 0 0 0 0
24 27 31 31 27 23 18 14 12 10 7 7 5 2 2 2 1 0 0 0 0 0 0 0 0 0 0 0 0 0 0 0 0 0 0 0 0 0 0 0 0 0 0
24 27 31 30 26 23 19 15 13 10 8 7 5 3 1 1 1 0 0 0 0 0 0 0 0 0 0 0 0 0 0 0 0 0 0 0 0 0 0 0 0 0 0
18 23 28 29 26 23 21 17 13 10 8 7 6 5 3 1 1 0 0 0 0 0 0 0 0 0 0 0 0 0 0 0 0 0 0 0 0 0 0 0 0 0 0
13 17 23 27 27 24 22 19 14 10 8 8 7 7 6 3 2 1 1 1 1 1 1 1 0 0 0 0 0 0 0 0 0 0 0 0 0 0 0 0 0 0 0
11 12 16 22 25 24 22 19 16 12 10 8 7 7 6 4 3 3 2 3 3 3 3 2 1 0 0 0 0 0 0 0 0 0 0 0 0 0 0 0 0 0 0
9 9 10 14 20 22 22 19 16 13 10 7 7 6 5 4 4 4 4 5 6 6 6 4 1 0 0 0 0 0 0 0 0 0 0 0 0 0 0 0 0 0 0
7 7 6 10 18 24 24 21 16 13 10 8 8 8 7 6 6 6 7 8 9 9 7 5 2 1 0 0 0 0 0 0 0 0 0 0 0 0 0 0 0 0 0
6 6 6 12 21 27 27 23 19 15 12 10 11 12 12 10 10 11 11 11 10 9 6 4 3 3 1 0 0 0 0 0 1 0 0 0 0 0 0 0 0 0 0
7 8 11 18 25 29 29 26 23 19 15 14 16 18 18 15 13 14 15 14 12 8 5 4 4 4 2 0 0 0 0 0 0 0 0 1 0 0 0 0 0 0 0
10 13 18 24 28 29 30 28 25 21 19 20 22 24 24 19 15 15 16 16 13 8 5 4 5 4 2 0 0 0 0 0 0 0 0 0 0 0 0 0 0 0 0
15 18 22 27 29 28 28 28 26 24 25 28 30 30 28 23 18 16 15 15 11 8 5 5 6 4 2 1 0 0 0 0 0 0 0 0 0 0 0 0 0 0 0
19 22 25 25 24 23 25 26 27 28 29 30 30 29 27 24 20 15 12 11 9 7 6 7 7 5 3 1 0 0 0 0 0 0 0 0 0 0 0 0 0 0 0
20 23 24 21 17 17 20 23 26 29 30 27 25 22 21 20 18 12 8 6 4 4 5 6 5 4 3 1 0 0 0 0 0 0 0 0 0 0 0 0 0 0 0
19 21 21 18 13 13 17 21 25 27 29 27 22 18 16 17 15 9 4 2 1 1 2 3 3 2 1 0 0 0 0 0 0 0 0 0 0 0 0 0 0 0 0

GEFSMW_con_prob3kmehi_174.txt.gz
EHI
71 72 68 66 68 70 70 66 62 62 61 56 47 40 36 32 27 25 22 16 11 10 10 12 13 12 12 11 10 8 4 2 3 2 0 0 0 1 3 2 1 0 0
71 72 71 69 70 71 69 65 63 64 62 56 48 40 35 30 26 26 24 17 13 11 10 11 10 8 9 10 9 7 4 2 2 3 1 0 0 0 1 1 1 1 2
72 73 74 73 72 71 68 65 66 66 63 57 48 37 31 27 25 26 26 21 17 14 12 12 10 7 6 7 7 5 3 2 3 4 3 1 0 0 0 0 1 3 3
73 75 76 75 73 71 68 66 66 66 63 57 47 36 29 26 25 27 28 24 20 18 17 18 16 12 7 6 5 4 4 4 5 6 5 2 0 0 0 0 2 3 3
75 77 77 75 72 70 67 64 63 64 62 56 45 37 32 30 29 31 30 25 21 20 20 21 21 16 11 7 5 4 4 4 4 4 4 2 0 0 0 0 1 2 2
77 77 77 74 72 69 66 61 60 62 59 53 45 40 37 35 36 36 30 22 19 18 17 18 18 15 11 8 5 4 3 3 2 1 1 0 0 0 0 0 0 1 1
72 73 74 72 70 69 66 62 59 58 54 50 48 45 41 38 38 36 27 18 14 15 15 16 15 12 8 7 5 5 4 3 1 0 0 0 0 0 0 0 0 0 0
67 68 70 70 69 70 69 65 61 56 51 50 51 48 42 37 36 32 23 15 12 12 15 16 13 9 6 5 5 4 4 3 1 0 0 0 0 0 0 0 0 0 0
63 65 67 67 67 69 69 66 63 57 51 51 48 44 39 36 33 29 21 15 12 10 12 14 11 7 5 6 6 5 3 2 1 0 0 0 0 0 0 0 0 0 0
55 59 63 64 65 66 65 64 63 58 52 48 43 38 37 35 30 25 20 19 15 11 11 11 8 6 6 7 7 5 2 1 0 0 0 0 0 0 0 0 0 0 0
47 52 58 61 62 63 62 60 58 55 50 44 38 36 35 32 27 22 20 20 18 15 13 12 9 6 6 6 5 3 1 0 0 0 0 0 0 0 0 0 0 0 0
45 50 56 58 58 60 61 57 53 49 43 38 34 33 31 27 23 20 19 18 16 15 13 11 8 5 4 4 4 2 0 0 0 0 0 0 0 0 0 0 0 0 0
51 56 61 61 59 60 61 56 50 43 37 31 28 27 26 23 20 18 18 16 15 14 12 9 6 4 3 3 3 2 1 0 0 0 0 0 0 0 0 0 0 0 0
57 63 69 70 66 64 62 56 48 41 36 30 24 22 23 22 19 17 16 16 15 14 11 7 4 3 2 2 4 4 2 1 0 0 0 0 0 0 0 0 0 0 0
57 64 72 76 74 69 63 56 49 44 41 35 26 23 24 23 20 18 17 15 13 12 10 6 3 2 1 1 4 5 3 1 1 1 0 0 0 0 0 0 0 0 0
54 62 71 77 77 71 63 57 53 50 47 39 29 26 27 25 20 19 18 15 13 12 11 7 4 2 1 1 2 4 3 3 2 2 1 0 0 0 0 0 0 0 0
49 56 66 73 74 70 62 57 54 53 47 36 29 30 31 27 21 18 18 19 18 17 14 10 5 3 2 1 0 1 2 3 3 3 2 1 0 0 1 1 0 0 0
42 49 59 65 67 66 62 57 54 51 43 33 30 33 35 31 25 21 22 24 23 20 15 10 6 5 3 1 0 0 1 2 3 3 3 2 1 1 1 1 0 0 0
40 44 51 58 62 64 63 58 54 49 41 32 29 32 35 34 31 29 29 30 27 22 16 10 8 6 4 2 1 0 0 1 2 3 3 2 1 1 1 1 0 0 0
40 42 47 54 60 64 62 57 53 49 42 33 29 31 35 38 39 38 36 34 30 24 17 12 10 9 6 3 1 0 0 1 1 2 2 1 1 0 0 0 0 0 0
38 41 46 53 59 62 60 53 50 50 45 38 33 34 39 42 43 43 40 33 28 25 20 16 13 11 8 4 1 0 0 1 2 2 2 1 0 0 0 0 0 0 0
35 39 45 52 56 57 55 51 50 52 51 45 41 42 46 44 42 44 41 33 27 25 23 20 14 11 8 4 1 0 0 1 1 1 1 0 0 0 0 0 0 0 0
37 38 42 46 49 51 52 51 52 55 54 49 48 51 52 48 44 42 38 32 28 24 22 19 13 10 8 5 2 0 0 0 0 0 0 0 0 0 0 0 0 0 0
38 38 39 41 42 45 48 50 51 54 53 49 50 51 51 48 45 40 34 29 24 22 20 18 14 11 9 6 3 1 0 0 0 0 0 0 0 0 0 0 0 0 0
34 35 36 35 35 40 44 46 49 53 53 49 46 43 42 42 39 33 26 21 17 14 15 16 13 9 7 4 3 1 0 0 0 0 0 0 0 0 0 0 0 0 0
31 33 33 29 30 37 42 43 47 53 53 50 44 37 35 36 32 26 20 15 10 7 7 9 7 4 3 2 1 1 0 0 0 0 0 0 0 0 0 0 0 0 0

GEFSMW_con_prob3kmehi_180.txt.gz
EHI
69 70 71 72 67 60 56 53 47 35 29 27 21 13 6 2 0 1 2 1 0 0 0 0 0 0 0 0 0 0 0 0 0 0 0 0 0 0 0 0 0 0 0
69 70 71 72 71 64 58 53 46 38 31 26 20 14 7 3 2 3 3 1 0 0 0 0 0 0 0 0 0 0 0 0 0 0 0 0 0 0 0 0 0 0 0
71 71 71 73 71 65 58 51 45 39 32 26 20 15 9 5 4 4 3 2 1 0 0 0 0 0 0 0 0 0 0 0 0 0 0 0 0 0 0 0 0 0 0
71 72 73 72 69 63 55 49 45 40 33 26 21 16 10 6 5 4 4 2 1 0 0 0 0 0 0 0 0 0 0 0 0 0 0 0 0 0 0 0 0 0 0
69 71 72 70 66 59 53 48 44 40 34 27 22 16 9 5 4 4 3 2 1 0 0 0 0 0 0 0 0 0 0 0 0 0 0 0 0 0 0 0 0 0 0
66 68 69 66 61 57 53 47 42 38 34 29 22 14 7 3 2 3 2 1 0 0 0 0 0 0 0 0 0 0 0 0 0 0 0 0 0 0 0 0 0 0 0
62 64 64 62 59 57 53 47 41 37 34 29 20 11 5 2 2 2 2 2 1 1 1 1 1 0 0 0 0 0 0 0 0 0 0 0 0 0 0 0 0 0 0
57 60 61 59 59 57 53 49 42 35 31 26 18 10 4 1 1 1 1 2 2 2 2 3 2 1 0 0 0 0 0 0 0 0 0 0 0 0 0 0 0 0 0
52 55 57 58 58 56 52 49 42 33 28 25 19 11 4 0 0 0 0 1 2 2 3 3 3 1 0 0 0 0 0 0 0 0 0 0 0 0 0 0 0 0 0
46 48 51 53 54 53 49 47 42 33 27 24 20 13 6 1 0 0 0 0 1 1 3 3 2 1 0 0 0 0 0 0 0 0 0 0 0 0 0 0 0 0 0
40 42 45 48 49 49 47 44 39 33 27 24 20 14 8 3 1 0 0 0 0 1 2 2 1 0 0 0 0 0 0 0 0 0 0 0 0 0 0 0 0 0 0
37 39 42 46 47 46 45 42 38 34 28 23 19 15 9 5 2 1 0 0 0 0 1 1 0 0 0 0 0 0 0 0 0 0 0 0 0 0 0 0 0 0 0
34 37 41 45 46 45 44 42 39 35 28 22 18 13 9 5 3 1 0 0 0 0 0 0 0 0 0 0 0 0 0 0 0 0 0 0 0 0 0 0 0 0 0
29 34 39 43 43 42 42 41 39 33 27 21 16 12 8 4 3 2 1 0 0 0 0 0 0 0 0 0 0 0 0 0 0 0 0 0 0 0 0 0 0 0 0
26 30 36 40 39 38 38 37 35 32 26 20 14 10 6 4 4 3 1 0 0 0 0 0 0 0 0 0 0 0 0 0 0 0 0 0 0 0 0 0 0 0 0
24 28 34 35 35 34 32 31 32 32 27 18 12 8 6 5 5 5 3 1 0 0 0 0 0 0 0 0 0 0 0 0 0 0 0 0 0 0 0 0 0 0 0
23 28 32 31 31 30 27 27 29 31 27 17 9 6 5 5 6 5 3 1 0 0 0 0 0 0 0 0 0 0 0 0 0 0 0 0 0 0 0 0 0 0 0
21 24 27 27 27 27 25 25 25 26 23 15 8 5 4 4 4 5 3 1 0 0 0 0 0 0 0 0 0 0 0 0 0 0 0 0 0 0 0 0 0 0 0
19 21 23 24 24 25 25 24 21 20 18 12 7 5 4 4 5 5 4 2 0 0 0 0 0 0 0 0 0 0 0 0 0 0 0 0 0 0 0 0 0 0 0
19 21 23 24 25 24 24 22 19 18 16 11 7 5 5 6 6 6 5 2 0 0 0 0 0 0 0 0 0 0 0 0 0 0 0 0 0 0 0 0 0 0 0
20 21 23 25 25 24 22 21 19 17 15 11 7 5 5 5 6 7 5 2 0 0 0 0 0 0 0 0 0 0 0 0 0 0 0 0 0 0 0 0 0 0 0
22 22 22 23 23 22 20 20 19 16 13 9 5 4 4 4 5 6 5 3 1 0 0 0 0 0 0 0 0 0 0 0 0 0 0 0 0 0 0 0 0 0 0
23 23 23 21 19 18 18 18 17 14 10 6 4 4 4 4 6 7 6 4 2 1 1 1 0 0 0 0 0 0 0 0 0 0 0 0 0 0 0 0 0 0 0
20 21 20 18 14 13 14 14 14 12 9 6 5 6 5 5 7 8 7 5 4 3 3 2 1 1 0 0 0 0 0 0 0 0 0 0 0 0 0 0 0 0 0
14 14 14 12 10 10 11 11 11 10 8 6 7 7 6 6 7 8 8 5 4 4 4 4 3 2 1 0 0 0 0 0 0 0 0 0 0 0 0 0 0 0 0
10 10 9 9 9 9 10 10 9 8 7 6 7 6 6 5 7 8 7 5 4 3 3 4 4 2 1 0 0 0 0 0 0 0 0 0 0 0 0 0 0 0 0

GEFSMW_con_prob3kmehi_186.txt.gz
EHI
29 31 30 24 15 9 9 11 11 8 7 6 4 3 2 1 1 2 2 1 0 0 0 0 0 0 0 0 0 0 0 0 0 0 0 0 0 0 0 0 0 0 0
38 37 34 29 22 15 14 15 13 9 8 6 5 4 2 1 0 1 1 0 0 0 0 0 0 0 0 0 0 0 0 0 0 0 0 0 0 0 0 0 0 0 0
47 45 43 38 31 24 21 19 16 11 7 6 6 6 3 1 1 0 0 0 0 0 0 0 0 0 0 0 0 0 0 0 0 0 0 0 0 0 0 0 0 0 0
50 51 52 47 39 32 26 23 19 13 8 6 7 7 5 3 2 1 1 0 0 0 0 0 0 0 0 0 0 0 0 0 0 0 0 0 0 0 0 0 0 0 0
50 52 55 51 44 38 33 28 25 18 11 8 9 9 6 3 2 2 1 0 0 0 0 0 0 0 0 0 0 0 0 0 0 0 0 0 0 0 0 0 0 0 0
47 49 53 52 45 40 37 34 31 25 17 12 11 10 7 3 2 2 2 1 0 0 0 0 0 0 0 0 0 0 0 0 0 0 0 0 0 0 0 0 0 0 0
39 43 49 49 44 40 38 38 37 31 24 18 14 11 8 3 2 3 3 2 1 0 0 0 0 0 0 0 0 0 0 0 0 0 0 0 0 0 0 0 0 0 0
32 36 43 45 41 38 38 40 39 34 29 23 17 11 6 2 2 3 3 2 1 0 0 0 0 0 0 0 0 0 0 0 0 0 0 0 0 0 0 0 0 0 0
23 27 34 38 37 35 35 37 38 35 29 25 19 11 5 1 1 2 2 2 1 0 0 0 0 0 0 0 0 0 0 0 0 0 0 0 0 0 0 0 0 0 0
17 20 25 28 29 29 28 30 32 29 25 21 16 11 5 1 0 1 1 1 0 0 0 0 0 0 0 0 0 0 0 0 0 0 0 0 0 0 0 0 0 0 0
16 19 22 21 21 22 21 22 23 22 18 15 12 10 6 2 0 0 0 0 0 0 0 0 0 0 0 0 0 0 0 0 0 0 0 0 0 0 0 0 0 0 0
18 21 21 20 20 20 20 18 19 18 15 12 10 9 5 1 0 0 0 0 0 0 0 0 0 0 0 0 0 0 0 0 0 0 0 0 0 0 0 0 0 0 0
18 20 20 19 20 21 20 18 18 17 15 12 10 9 5 2 1 1 0 0 0 0 0 0 0 0 0 0 0 0 0 0 0 0 0 0 0 0 0 0 0 0 0
16 17 18 17 17 18 18 18 17 15 14 13 12 10 6 3 2 1 0 0 0 0 0 0 0 0 0 0 0 0 0 0 0 0 0 0 0 0 0 0 0 0 0
13 14 15 14 13 14 15 17 16 14 13 14 13 11 8 5 3 1 0 0 0 0 0 0 0 0 0 0 0 0 0 0 0 0 0 0 0 0 0 0 0 0 0
10 11 10 10 9 8 10 13 15 15 15 14 14 12 9 5 3 1 0 0 0 0 0 0 0 0 0 0 0 0 0 0 0 0 0 0 0 0 0 0 0 0 0
10 9 9 9 7 6 7 10 12 14 15 13 12 11 8 5 3 2 1 0 0 0 0 0 0 0 0 0 0 0 0 0 0 0 0 0 0 0 0 0 0 0 0
10 10 10 9 7 5 6 8 9 10 11 11 11 9 6 4 3 3 1 0 0 0 0 0 0 0 0 0 0 0 0 0 0 0 0 0 0 0 0 0 0 0 0
8 9 10 9 7 7 7 7 7 9 10 10 9 7 4 3 3 3 2 1 0 0 0 0 0 0 0 0 0 0 0 0 0 0 0 0 0 0 0 0 0 0 0
5 8 9 8 6 6 7 7 8 10 10 9 6 4 4 4 4 3 2 1 0 0 0 0 0 0 0 0 0 0 0 0 0 0 0 0 0 0 0 0 0 0 0
3 6 7 6 4 4 5 7 8 8 8 6 4 3 4 4 4 3 2 1 0 0 0 0 0 0 0 0 0 0 0 0 0 0 0 0 0 0 0 0 0 0 0
4 5 5 3 1 1 3 4 5 5 5 4 3 3 3 4 4 2 1 0 0 0 0 0 0 0 0 0 0 0 0 0 0 0 0 0 0 0 0 0 0 0 0
4 4 3 1 0 1 2 2 2 2 3 3 3 3 3 3 3 1 0 0 0 0 0 0 0 0 0 0 0 0 0 0 0 0 0 0 0 0 0 0 0 0 0
3 3 2 1 0 0 1 1 0 1 3 3 3 3 3 3 2 1 0 0 0 0 0 0 0 0 0 0 0 0 0 0 0 0 0 0 0 0 0 0 0 0 0
3 3 2 1 0 0 0 0 0 1 2 3 3 3 3 3 1 0 0 0 0 0 0 0 0 0 0 0 0 0 0 0 0 0 0 0 0 0 0 0 0 0 0
3 3 2 2 1 0 1 1 1 1 2 3 3 3 3 2 1 0 0 0 0 0 0 0 0 0 0 0 0 0 0 0 0 0 0 0 0 0 0 0 0 0 0

GEFSMW_con_prob3kmehi_192.txt.gz
EHI
34 38 40 36 30 28 25 22 19 17 16 13 11 9 5 3 2 4 7 7 7 7 7 6 5 4 3 3 2 2 2 2 1 0 0 0 0 0 0 0 0 0 0
43 47 49 45 39 34 29 26 24 22 21 19 17 13 8 5 3 5 7 7 7 7 7 6 4 3 3 2 2 1 1 1 1 0 0 0 0 0 0 0 0 0 0
48 56 60 58 52 43 33 29 29 28 28 26 21 17 12 7 5 5 6 7 7 6 6 5 4 3 3 2 1 1 1 1 1 1 1 0 0 0 0 0 0 0 0
43 53 61 63 60 51 39 33 32 33 33 30 22 18 13 7 5 6 7 8 8 6 4 3 3 3 3 2 1 1 1 1 1 2 1 0 0 0 0 0 0 0 0
37 43 52 58 60 56 48 41 36 35 34 30 24 18 12 8 7 8 10 11 9 7 4 3 3 3 3 3 2 1 1 1 1 1 1 0 0 0 1 0 0 0 0
31 35 41 50 56 57 55 51 44 37 34 31 27 20 15 11 11 13 14 13 11 9 7 5 4 4 3 4 4 3 1 1 0 0 0 0 0 0 0 0 0 0 0
25 29 37 47 54 58 57 55 49 40 36 35 33 27 20 15 14 15 16 15 12 10 8 7 6 4 3 4 4 3 1 0 0 0 0 0 0 0 0 0 0 0 0
22 27 36 45 52 54 53 52 49 43 41 41 41 37 30 21 15 15 16 16 13 10 8 8 6 4 2 2 3 2 1 0 0 0 0 0 0 0 0 0 0 0 0
20 24 32 40 45 46 48 49 47 43 42 44 45 44 38 29 21 18 17 16 14 10 8 7 5 3 2 1 2 2 1 1 1 1 0 0 0 0 0 0 0 0 0
20 24 30 36 38 40 42 44 43 41 38 39 41 40 39 35 29 24 19 17 16 14 12 9 5 4 2 1 1 1 1 2 3 2 1 0 1 1 1 1 0 1 1
19 23 29 34 36 35 36 38 39 37 35 35 35 35 37 36 32 25 21 20 20 18 16 12 7 4 2 1 1 0 1 2 2 1 0 0 0 1 1 1 0 1 2
18 22 28 32 32 31 32 34 35 34 33 34 35 37 37 36 32 26 22 21 21 19 16 13 9 6 3 2 2 1 0 1 1 1 0 0 0 1 1 0 0 1 1
19 24 28 30 30 32 33 31 31 30 30 31 36 39 38 35 33 28 23 21 20 19 16 12 10 8 4 3 3 2 1 1 1 1 1 0 1 2 1 0 1 1 1
23 27 30 30 33 36 35 30 26 25 26 28 34 38 38 35 32 28 24 22 21 20 16 13 12 10 6 4 4 4 4 4 3 2 1 0 1 2 2 1 1 2 2
22 25 28 30 36 39 35 28 25 23 24 28 33 35 36 35 31 28 25 22 21 18 16 15 14 10 5 3 4 6 8 7 5 2 1 0 0 1 1 1 0 1 2
14 18 22 27 34 37 33 28 28 27 27 30 31 32 33 32 30 28 25 22 19 16 15 16 16 11 4 1 2 5 8 7 4 3 1 0 0 0 0 0 0 0 1
8 12 17 23 30 34 31 30 33 34 33 32 30 30 30 29 28 25 24 22 20 17 15 15 15 12 5 1 0 2 5 4 3 3 2 1 0 0 1 1 0 0 1
8 10 16 22 27 30 30 30 32 34 35 32 30 28 28 27 26 24 23 23 21 18 15 15 15 12 5 1 0 1 1 1 1 2 3 4 2 1 2 2 1 1 1
10 12 17 24 28 29 27 27 28 29 29 28 25 24 25 25 23 21 22 22 20 18 15 15 15 13 6 1 0 0 0 0 1 4 6 6 4 2 1 2 1 1 1
17 18 20 25 29 27 23 23 24 23 21 21 20 20 22 22 20 20 21 21 19 17 15 14 14 13 7 2 0 0 0 1 3 6 7 5 3 1 0 1 1 0 0
22 23 25 26 27 24 21 22 22 18 15 17 19 21 22 21 21 23 24 22 19 16 14 12 13 12 7 2 0 0 1 1 3 5 7 6 2 0 0 0 0 0 0
24 26 27 28 26 22 20 21 20 17 15 17 20 23 25 23 23 25 24 20 15 12 11 12 14 13 8 3 0 0 0 0 1 3 5 4 2 0 0 0 0 0 0
26 26 27 28 27 23 18 18 18 17 17 18 21 24 26 25 24 24 20 14 9 7 8 12 15 14 11 6 3 1 0 0 0 1 2 1 0 0 0 0 0 0 0
24 23 24 26 26 22 18 16 17 18 19 19 19 21 23 23 21 20 15 9 6 5 6 9 12 12 11 9 5 3 2 1 0 0 0 0 0 0 0 0 0 0 0
20 20 21 23 23 22 20 20 20 21 21 19 16 17 18 17 15 13 10 7 4 4 4 5 6 8 8 6 4 4 3 1 0 0 0 0 0 0 0 0 0 0 0
19 19 20 22 21 20 22 23 24 24 22 17 14 14 16 15 12 9 6 5 3 2 2 2 3 3 4 3 2 2 2 1 0 0 0 0 0 0 0 0 0 0 0

GEFSMW_con_prob3kmehi_198.txt.gz
EHI
83 83 80 80 84 89 90 86 80 72 59 49 44 42 40 33 25 28 34 29 18 12 11 14 16 14 12 13 12 9 7 6 4 2 0 0 2 4 5 4 3 2 1
89 86 84 84 87 91 93 90 86 76 63 53 46 41 38 32 28 33 38 31 21 14 12 15 15 14 14 14 14 11 8 6 4 3 1 1 2 3 3 5 5 3 2
95 93 91 89 88 92 94 93 91 81 69 61 51 44 41 34 33 41 43 34 24 18 15 15 14 13 13 14 14 12 8 6 5 4 2 1 1 1 1 3 4 4 4
99 98 96 93 90 90 93 94 94 86 77 68 60 52 45 36 36 44 46 38 29 22 19 18 17 14 12 13 13 11 8 6 5 2 1 1 1 0 0 1 2 3 4
97 98 98 95 92 91 92 95 95 91 83 74 67 60 50 41 42 47 49 44 35 28 24 25 26 20 14 14 15 14 10 7 5 3 2 2 1 0 0 0 0 2 3
88 94 98 96 93 92 93 95 95 92 86 77 69 62 56 53 54 55 54 48 39 31 27 30 34 29 20 19 22 20 15 12 10 7 5 3 1 0 0 0 0 1 2
77 88 96 95 93 94 95 95 95 93 89 81 71 64 61 61 61 60 56 48 38 32 32 37 42 38 29 27 29 25 20 18 17 12 8 5 3 4 4 2 0 1 2
67 81 93 95 94 94 95 96 95 94 91 85 76 69 64 60 60 60 54 46 38 36 42 49 51 47 38 34 36 32 25 24 21 15 11 7 5 7 8 6 2 0 1
54 71 87 93 94 95 95 95 94 94 92 87 81 74 67 61 60 60 54 47 41 41 50 58 57 51 45 42 41 36 30 28 24 18 13 8 5 6 9 7 4 2 1
45 61 80 89 93 94 94 93 92 92 91 86 79 73 68 64 61 60 56 52 46 44 50 58 58 53 48 46 43 36 32 29 24 18 14 10 6 5 6 5 5 3 2
43 56 72 82 86 88 88 89 89 89 88 82 74 69 67 65 62 60 60 57 51 48 50 56 56 50 48 47 40 32 29 27 21 16 14 12 9 8 6 5 4 3 2
41 54 69 76 80 81 82 84 84 84 83 77 71 68 66 67 65 62 63 62 57 52 53 55 51 44 43 44 39 28 23 23 20 16 15 14 12 11 9 6 5 3 1
43 55 68 75 78 80 82 81 79 80 79 75 71 68 67 68 68 66 66 65 60 55 54 53 45 39 38 39 36 26 20 19 19 17 16 15 14 12 10 8 5 3 2
46 55 68 75 77 80 83 82 79 80 79 76 73 70 68 69 69 68 68 66 61 56 55 51 43 37 35 34 31 25 20 18 17 16 15 14 12 11 8 6 5 4 3
42 50 63 71 73 76 80 80 79 80 80 77 73 71 69 68 66 66 65 63 58 54 54 52 43 36 30 25 23 21 20 17 15 14 13 11 8 6 4 3 4 3 3
35 43 55 64 67 68 70 72 73 75 75 71 68 67 67 64 60 58 59 59 55 53 54 52 44 33 23 15 12 14 17 16 13 11 10 7 4 2 1 1 1 1 2
30 37 47 56 60 59 59 62 64 66 64 59 57 61 63 60 55 53 54 55 54 52 52 49 41 30 18 8 4 7 13 14 13 11 10 6 3 1 1 1 0 0 1
28 32 41 50 55 55 54 54 55 57 54 48 49 56 60 59 55 53 55 55 53 51 47 41 36 28 15 5 1 3 9 13 13 12 10 8 4 2 2 2 1 1 1
30 32 38 48 53 53 52 51 49 48 45 42 46 52 55 56 55 54 54 52 50 47 39 32 29 25 15 5 1 2 7 10 10 10 8 7 4 1 1 1 2 2 2
35 35 40 50 54 53 51 50 47 43 39 38 42 45 46 48 49 49 49 48 43 37 31 26 25 25 20 8 1 2 5 6 6 6 5 3 2 0 0 1 2 3 3
38 37 43 51 54 52 50 48 44 40 37 36 37 40 40 40 41 43 43 42 35 28 25 24 25 27 22 11 2 1 3 4 5 6 4 2 0 0 0 0 1 2 2
37 38 42 49 52 50 47 45 43 40 36 34 35 37 37 36 36 37 36 33 30 26 24 23 22 22 18 10 3 0 1 2 5 5 3 1 0 0 0 0 0 1 1
34 36 41 46 49 48 46 44 41 39 36 32 31 31 32 33 34 32 27 25 24 24 24 22 19 16 14 10 4 1 0 1 2 2 1 0 0 0 0 0 0 0 0
32 35 39 43 45 46 44 41 38 36 34 29 25 25 28 31 31 27 21 18 17 19 20 20 17 14 13 11 6 2 0 0 0 0 0 0 0 0 0 0 0 0 0
31 33 36 37 39 41 40 35 33 33 31 26 22 21 23 26 26 22 16 11 10 11 14 15 12 9 8 7 5 3 1 0 0 0 0 0 0 0 0 0 0 0 0
31 32 32 32 35 37 36 31 29 29 29 26 22 18 19 22 22 17 12 7 6 6 8 9 7 4 3 2 2 2 2 1 0 0 0 0 0 0 0 0 0 0 0

GEFSMW_con_prob3kmehi_204.txt.gz
EHI
60 67 75 81 82 75 66 58 48 35 26 23 20 16 12 8 5 2 1 1 2 2 2 4 4 4 2 1 0 0 0 0 0 0 0 0 0 0 0 0 0 0 0
67 71 76 82 85 80 71 62 52 38 28 24 20 16 12 8 6 5 3 3 3 2 3 4 4 4 3 1 0 1 1 0 0 0 0 0 0 0 0 0 0 0 0
75 75 78 83 88 86 78 68 58 44 33 26 23 19 15 11 9 8 7 5 4 4 4 4 4 3 3 2 1 1 1 0 0 0 0 0 0 0 0 0 0 0 0
80 79 80 85 88 87 82 74 65 52 39 30 26 23 19 14 11 10 9 6 4 4 6 5 4 3 3 1 0 1 1 0 0 0 0 0 0 0 0 0 0 0 0
81 82 83 85 86 85 84 80 72 59 45 33 27 23 18 13 11 11 11 7 4 5 6 5 3 2 2 1 0 0 0 0 0 0 0 0 0 0 0 0 0 0 0
80 82 84 85 85 85 85 85 79 67 52 37 27 21 16 12 12 14 14 10 7 6 6 5 3 1 1 0 0 0 0 0 0 0 0 0 0 0 0 0 0 0 0
77 81 84 84 85 86 87 88 85 75 61 46 33 24 18 14 14 17 17 13 10 8 8 7 4 2 1 0 0 0 0 0 0 0 0 0 0 0 0 0 0 0 0
78 81 84 84 84 86 87 87 84 77 69 58 44 33 24 16 13 14 15 12 10 9 9 10 8 5 2 1 0 0 0 0 0 0 0 0 0 0 0 0 0 0 0
79 80 82 83 84 85 85 84 82 76 71 65 55 43 32 22 13 11 12 11 9 9 10 11 10 7 4 1 0 0 0 1 0 0 0 0 0 0 0 0 0 0 0
71 74 78 82 85 83 81 81 80 75 70 66 61 49 37 26 18 13 11 10 10 10 12 13 12 9 5 3 1 0 0 0 0 0 0 0 0 0 0 0 0 0 0
59 66 73 79 83 81 78 78 77 74 70 67 63 52 39 29 22 17 13 11 10 11 13 14 13 11 10 7 4 2 1 1 0 0 0 0 0 0 0 0 0 0 0
50 58 69 75 79 78 75 75 75 73 71 68 63 55 43 33 26 20 16 12 10 10 14 17 15 13 14 13 9 6 3 2 1 0 0 0 0 0 0 0 0 0 0
42 49 61 68 71 73 72 71 71 72 72 70 63 55 45 35 27 21 18 16 14 14 17 18 16 15 15 14 11 7 4 2 1 0 0 0 0 0 0 0 0 0 0
37 42 51 58 62 65 66 67 68 69 70 68 62 52 41 33 26 22 20 19 18 19 20 20 18 17 16 14 11 6 2 1 0 0 0 0 0 0 0 0 0 0 0
35 40 48 53 55 58 60 62 64 64 65 64 57 46 36 30 26 23 22 21 20 21 21 21 20 18 16 14 10 6 2 1 1 0 0 0 0 0 0 0 0 0 0
34 37 44 48 49 51 54 56 56 57 59 59 52 41 32 26 25 25 23 21 21 21 21 22 21 18 15 12 8 5 4 3 2 1 0 0 0 0 0 0 0 0 0
32 32 36 40 41 40 42 44 44 46 50 50 46 38 31 24 23 23 22 20 19 18 19 20 19 16 14 10 5 2 3 3 2 2 1 0 0 0 0 0 0 0 0
27 28 31 34 34 31 31 33 34 37 40 40 38 36 31 26 23 21 20 19 17 15 16 16 15 14 13 9 3 1 1 1 1 1 1 0 0 0 0 0 0 0 0
23 25 28 31 31 30 31 32 32 33 36 35 33 31 29 27 25 22 20 19 16 14 12 13 13 13 12 7 3 1 0 0 0 0 0 0 0 0 0 0 0 0 0
23 25 28 29 30 33 36 35 32 32 34 33 30 26 25 26 25 23 21 19 16 12 11 11 11 11 9 6 3 1 1 1 0 0 0 0 0 0 0 0 0 0 0
23 27 31 30 30 33 36 34 30 29 30 29 26 24 23 24 24 23 22 19 14 11 9 8 7 7 6 4 2 1 1 1 0 0 0 0 0 0 0 0 0 0 0
24 27 31 30 29 31 32 31 28 27 26 25 23 21 19 19 19 20 20 17 12 8 6 5 4 4 4 3 2 1 1 1 0 0 0 0 0 0 0 0 0 0 0
20 24 28 30 29 29 28 27 26 26 25 23 21 17 13 11 12 13 13 11 8 5 5 4 3 3 3 3 3 1 0 0 0 0 0 0 0 0 0 0 0 0 0
12 17 23 26 26 24 23 22 22 23 22 19 17 14 10 7 6 5 5 5 4 4 4 4 4 3 3 3 3 2 1 0 0 0 0 0 0 0 0 0 0 0 0
9 12 17 21 21 19 18 18 18 18 16 14 13 12 10 8 5 2 1 2 2 3 3 4 4 3 3 3 3 2 1 0 0 0 0 0 0 0 0 0 0 0 0
11 12 15 18 18 17 16 17 17 15 13 12 11 11 11 10 6 3 2 2 1 1 1 2 3 3 3 3 3 2 1 0 0 0 0 0 0 0 0 0 0 0 0